VK2RZ Weather Reports


Display with metric or nautical units.
time (UTC)temp
F
wind
direction
speed
MPH
gust
MPH
rain 1hr
in
rain 24hr
in
rain mn
in
humidity
%
barometer
mb
20260904015725 69 231 2.0 6.0 0.00 0.00 0.00 4 1019.7
20260904014725 69 280 3.0 10.0 0.00 0.00 0.00 4 1019.8
20260904013725 68 220 1.0 4.0 0.00 0.00 0.00 5 1020.1
20260904012725 68 236 4.0 9.0 0.00 0.00 0.00 4 1020.4
20260904011725 67 245 1.0 5.0 0.00 0.00 0.00 5 1020.6
20260904010725 67 232 6.0 11.0 0.00 0.00 0.00 5 1020.6
20260904005725 67 255 1.0 9.0 0.00 0.00 0.00 5 1020.8
20260904004725 67 248 4.0 9.0 0.00 0.00 0.00 5 1020.9
20260904003725 67 288 6.0 7.0 0.00 0.00 0.00 5 1020.9
20260904002725 66 312 3.0 7.0 0.00 0.00 0.00 5 1021.0
20260904001724 66 237 7.0 7.0 0.00 0.00 0.00 5 1021.2
20260904000724 65 253 4.0 11.0 0.00 0.00 0.00 5 1021.4
20260903235724 64 233 7.0 12.0 0.00 0.00 0.00 5 1021.4
20260903234724 64 211 6.0 13.0 0.00 0.00 0.00 5 1021.5
20260903233724 64 245 8.0 8.0 0.00 0.00 0.00 5 1021.5
20260903232724 64 222 3.0 9.0 0.00 0.00 0.00 5 1021.7
20260903231724 63 246 5.0 16.0 0.00 0.00 0.00 5 1021.8
20260903230724 62 250 13.0 13.0 0.00 0.00 0.00 5 1021.8
20260903225724 62 226 7.0 15.0 0.00 0.00 0.00 5 1022.0
20260903224724 62 268 9.0 16.0 0.00 0.00 0.00 5 1021.8
20260903223724 61 266 7.0 14.0 0.00 0.00 0.00 5 1021.9
20260903222724 61 292 8.0 13.0 0.00 0.00 0.00 6 1021.9
20260903221724 61 251 9.0 15.0 0.00 0.00 0.00 6 1021.9
20260903220724 60 218 3.0 12.0 0.00 0.00 0.00 6 1021.9
20260903215724 60 258 7.0 12.0 0.00 0.00 0.00 6 1021.8
20260903214724 59 239 5.0 10.0 0.00 0.00 0.00 6 1021.7
20260903213724 59 257 7.0 11.0 0.00 0.00 0.00 6 1021.6
20260903212724 59 240 11.0 13.0 0.00 0.00 0.00 6 1021.5
20260903211724 58 242 5.0 12.0 0.00 0.00 0.00 6 1021.6
20260903210724 57 243 3.0 11.0 0.00 0.00 0.00 6 1021.3
20260903205724 57 258 7.0 9.0 0.00 0.00 0.00 6 1021.3
20260903204723 57 238 4.0 10.0 0.00 0.00 0.00 6 1021.2
20260903203722 56 244 6.0 9.0 0.00 0.00 0.00 6 1021.2
20260903202722 56 243 5.0 9.0 0.00 0.00 0.00 6 1021.1
20260903201722 56 233 4.0 6.0 0.00 0.00 0.00 6 1021.1
20260903200722 56 250 5.0 8.0 0.00 0.00 0.00 6 1021.1
20260903195722 56 246 6.0 11.0 0.00 0.00 0.00 6 1020.9
20260903194722 56 246 6.0 9.0 0.00 0.00 0.00 6 1020.7
20260903193722 56 284 3.0 9.0 0.00 0.00 0.00 6 1020.4
20260903193231 56 246 4.0 9.0 0.00 0.00 0.00 6 1020.5
20260903192231 56 258 5.0 7.0 0.00 0.00 0.00 6 1020.4
20260903191231 56 246 8.0 9.0 0.00 0.00 0.00 6 1020.4
20260903190231 56 254 5.0 5.0 0.00 0.00 0.00 6 1020.3
20260903185231 56 251 2.0 6.0 0.00 0.00 0.00 6 1020.3
20260903184230 57 256 7.0 8.0 0.00 0.00 0.00 6 1020.0
20260903183230 57 249 3.0 5.0 0.00 0.00 0.00 6 1020.2
20260903182230 57 258 4.0 8.0 0.00 0.00 0.00 6 1019.6
20260903181230 57 259 7.0 7.0 0.00 0.00 0.00 6 1019.7
20260903180230 57 237 6.0 9.0 0.00 0.00 0.00 6 1019.3
20260903175230 57 241 2.0 5.0 0.00 0.00 0.00 6 1019.5
20260903174230 57 262 8.0 9.0 0.00 0.00 0.00 6 1019.3
20260903173230 57 215 2.0 10.0 0.00 0.00 0.00 6 1019.5
20260903172230 57 252 9.0 13.0 0.00 0.00 0.00 6 1019.3
20260903171230 57 246 3.0 10.0 0.00 0.00 0.00 6 1019.4
20260903170230 57 270 3.0 6.0 0.00 0.00 0.00 6 1019.5
20260903165230 57 249 3.0 10.0 0.00 0.00 0.00 6 1019.5
20260903164230 57 233 1.0 5.0 0.00 0.00 0.00 6 1019.7
20260903163230 57 0 0.0 1.0 0.00 0.00 0.00 6 1019.7
20260903162230 57 268 2.0 3.0 0.00 0.00 0.00 6 1019.8
20260903161230 58 268 4.0 7.0 0.00 0.00 0.00 6 1019.9
20260903160230 58 258 2.0 8.0 0.00 0.00 0.00 6 1020.0
20260903155230 58 240 2.0 6.0 0.00 0.00 0.00 6 1019.9
20260903154230 58 256 7.0 9.0 0.00 0.00 0.00 6 1019.8
20260903153230 58 259 7.0 11.0 0.00 0.00 0.00 6 1019.9
20260903152230 59 245 5.0 11.0 0.00 0.00 0.00 6 1020.1
20260903151230 59 264 12.0 13.0 0.00 0.00 0.00 6 1020.0
20260903150230 59 218 7.0 11.0 0.00 0.00 0.00 6 1020.1
20260903145230 58 224 6.0 11.0 0.00 0.00 0.00 6 1020.3
20260903144230 58 232 2.0 5.0 0.00 0.00 0.00 6 1020.4
20260903143229 58 0 0.0 2.0 0.00 0.00 0.00 6 1020.4
20260903142229 58 232 3.0 4.0 0.00 0.00 0.00 6 1020.3
20260903141229 59 259 4.0 7.0 0.00 0.00 0.00 6 1020.3
20260903140229 59 252 5.0 9.0 0.00 0.00 0.00 6 1020.2
20260903135229 60 216 4.0 9.0 0.00 0.00 0.00 6 1020.1
20260903134229 60 241 5.0 10.0 0.00 0.00 0.00 6 1019.9
20260903133230 60 261 9.0 11.0 0.00 0.00 0.00 6 1019.9
20260903132229 60 245 6.0 7.0 0.00 0.00 0.00 6 1019.9
20260903131228 61 229 4.0 9.0 0.00 0.00 0.00 6 1019.6
20260903130228 61 260 3.0 13.0 0.00 0.00 0.00 5 1019.5
20260903125228 61 243 5.0 7.0 0.00 0.00 0.00 5 1019.4
20260903124228 62 241 2.0 9.0 0.00 0.00 0.00 5 1019.2
20260903123228 62 195 8.0 16.0 0.00 0.00 0.00 5 1019.0
20260903122228 62 234 4.0 13.0 0.00 0.00 0.00 5 1019.0
20260903121228 62 244 12.0 16.0 0.00 0.00 0.00 5 1019.0
20260903120228 62 249 12.0 12.0 0.00 0.00 0.00 6 1018.8
20260903115228 62 249 5.0 9.0 0.00 0.00 0.00 6 1018.7
20260903114228 62 255 2.0 3.0 0.00 0.00 0.00 6 1018.7
20260903113228 62 255 4.0 5.0 0.00 0.00 0.00 6 1018.5
20260903112228 62 251 1.0 3.0 0.00 0.00 0.00 6 1018.4
20260903111228 63 0 0.0 0.0 0.00 0.00 0.00 6 1018.3
20260903110228 63 0 0.0 3.0 0.00 0.00 0.00 5 1018.2
20260903105228 64 247 2.0 3.0 0.00 0.00 0.00 5 1017.8
20260903104228 64 247 2.0 6.0 0.00 0.00 0.00 5 1017.6
20260903103228 64 283 3.0 6.0 0.00 0.00 0.00 5 1017.7
20260903102228 64 291 3.0 4.0 0.00 0.00 0.00 5 1017.6
20260903101228 65 285 2.0 7.0 0.00 0.00 0.00 5 1017.1
20260903100228 65 267 2.0 5.0 0.00 0.00 0.00 5 1016.9
20260903095227 66 291 3.0 4.0 0.00 0.00 0.00 5 1016.8
20260903094227 66 261 2.0 3.0 0.00 0.00 0.00 5 1016.6
20260903093227 67 226 2.0 6.0 0.00 0.00 0.00 5 1016.0
20260903092227 67 226 4.0 8.0 0.00 0.00 0.00 5 1015.7
20260903091227 68 257 3.0 8.0 0.00 0.00 0.00 5 1015.6
20260903090227 68 274 2.0 3.0 0.00 0.00 0.00 4 1015.6
20260903085227 68 259 3.0 4.0 0.00 0.00 0.00 4 1015.3
20260903084438 68 285 3.0 7.0 0.00 0.00 0.00 4 1015.1
20260903083438 69 225 5.0 7.0 0.00 0.00 0.00 4 1014.9
20260903082438 69 257 4.0 11.0 0.00 0.00 0.00 4 1014.7
20260903081437 70 249 4.0 10.0 0.00 0.00 0.00 4 1014.5
20260903080436 70 237 2.0 10.0 0.00 0.00 0.00 4 1014.3
20260903075435 68 285 2.0 3.0 0.00 0.00 0.00 4 1014.2
20260903074435 69 305 1.0 3.0 0.00 0.00 0.00 4 1014.2
20260903073435 71 305 1.0 4.0 0.00 0.00 0.00 4 1013.9
20260903072435 71 0 0.0 5.0 0.00 0.00 0.00 4 1013.8
20260903071435 72 0 0.0 4.0 0.00 0.00 0.00 4 1013.6
20260903070435 72 0 6.0 6.0 0.00 0.00 0.00 4 1013.3
20260903065435 74 235 1.0 4.0 0.00 0.00 0.00 4 1013.1
20260903064435 75 242 3.0 9.0 0.00 0.00 0.00 3 1012.8
20260903063435 75 262 1.0 10.0 0.00 0.00 0.00 3 1012.5
20260903062435 76 257 5.0 11.0 0.00 0.00 0.00 3 1012.5
20260903061435 76 311 2.0 12.0 0.00 0.00 0.00 3 1012.3
20260903060435 76 268 3.0 15.0 0.00 0.00 0.00 3 1012.2
20260903055435 76 270 1.0 14.0 0.00 0.00 0.00 3 1011.9
20260903054435 77 129 5.0 9.0 0.00 0.00 0.00 3 1011.9
20260903053435 77 296 2.0 10.0 0.00 0.00 0.00 3 1011.8
20260903052435 78 274 2.0 10.0 0.00 0.00 0.00 3 1011.8
20260903051435 78 255 5.0 13.0 0.00 0.00 0.00 3 1011.7
20260903050439 78 175 5.0 11.0 0.00 0.00 0.00 3 1011.6
20260903045439 78 228 10.0 14.0 0.00 0.00 0.00 3 1011.4
20260903044439 78 222 10.0 12.0 0.00 0.00 0.00 3 1011.3
20260903043442 79 267 4.0 12.0 0.00 0.00 0.00 3 1010.9
20260903042439 79 274 4.0 14.0 0.00 0.00 0.00 3 1010.8
20260903041447 79 220 7.0 13.0 0.00 0.00 0.00 3 1010.9
20260903040437 79 245 3.0 8.0 0.00 0.00 0.00 3 1010.6
20260903035434 79 228 10.0 15.0 0.00 0.00 0.00 3 1010.5
20260903034437 79 218 5.0 10.0 0.00 0.00 0.00 3 1010.5
20260903032434 80 256 9.0 15.0 0.00 0.00 0.00 3 1010.4
20260903031437 79 233 3.0 13.0 0.00 0.00 0.00 3 1010.3
20260903030438 79 252 9.0 14.0 0.00 0.00 0.00 3 1010.2
20260903025434 79 251 4.0 16.0 0.00 0.00 0.00 3 1010.2
20260903024437 79 212 3.0 15.0 0.00 0.00 0.00 3 1010.3
20260903021435 79 247 9.0 12.0 0.00 0.00 0.00 3 1010.3
20260903020438 79 190 8.0 15.0 0.00 0.00 0.00 3 1010.5